Location: Santa Clara
(37.3540°N, 121.9540°W)
Time: 16:09:15
(UTC-07:00)

Vanguard 2 - All Passes

Search period start: 28 May 2022 00:00
Search period end: 07 June 2022 00:00
Orbit: 552 x 2935 km, 32.9° (Epoch: 28 May)

Date Brightness Start Highest point End Pass type
(mag) Time Alt. Az. Time Alt. Az. Time Alt. Az.
28 May - 04:22:35 10° SSW 04:30:20 30° SE 04:41:34 10° E visible
28 May - 06:28:32 10° WSW 06:39:34 63° SSE 06:56:09 10° E daylight
28 May - 08:37:19 10° W 08:51:25 76° S 09:09:27 10° E daylight
28 May - 10:47:49 10° W 11:04:03 61° SSW 11:20:46 10° SE daylight
28 May - 13:00:39 10° W 13:15:17 33° SW 13:28:16 10° SSE daylight
29 May - 04:38:52 10° SSW 04:47:06 37° SE 04:59:36 10° E visible
29 May - 06:45:38 10° WSW 06:56:52 69° SSE 07:13:47 10° E daylight
29 May - 08:54:40 10° W 09:08:56 74° S 09:26:55 10° ESE daylight
29 May - 11:05:21 10° W 11:21:20 54° SSW 11:37:38 10° SE daylight
29 May - 13:19:06 10° W 13:32:07 26° SW 13:43:53 10° S daylight
30 May - 02:52:56 10° SSE 02:56:28 13° SE 03:00:39 10° ESE visible
30 May - 04:55:28 10° SW 05:03:59 46° SSE 05:17:26 10° E visible
30 May - 07:02:49 10° WSW 07:14:15 72° S 07:31:24 10° E daylight
30 May - 09:12:04 10° W 09:26:25 70° SSW 09:44:17 10° ESE daylight
30 May - 11:22:59 10° W 11:38:31 47° SSW 11:54:16 10° SE daylight
30 May - 13:38:16 10° W 13:48:54 19° SW 13:58:45 10° S daylight
31 May - 03:07:46 10° S 03:13:01 19° SE 03:20:04 10° E visible
31 May - 05:12:17 10° SW 05:21:01 54° SSE 05:35:09 10° E visible
31 May - 07:20:03 10° W 07:31:41 74° S 07:48:59 10° E daylight
31 May - 09:29:28 10° W 09:43:51 65° SSW 10:01:30 10° ESE daylight
31 May - 11:40:48 10° W 11:55:37 39° SW 12:10:37 10° SSE daylight
31 May - 13:59:09 10° WSW 14:05:41 13° SW 14:11:56 10° SSW daylight
01 Jun - 03:23:37 10° SSW 03:29:40 26° SE 03:38:30 10° E visible
01 Jun - 05:29:15 10° WSW 05:38:11 62° SSE 05:52:49 10° E daylight
01 Jun - 07:37:20 10° W 07:49:09 74° S 08:06:32 10° ESE daylight
01 Jun - 09:46:54 10° W 10:01:13 58° SSW 10:18:33 10° SE daylight
01 Jun - 11:58:52 10° W 12:12:38 32° SW 12:26:33 10° SSE daylight
02 Jun - 03:39:56 10° SSW 03:46:26 34° SE 03:56:30 10° E visible
02 Jun - 05:46:20 10° WSW 05:55:27 67° SSE 06:10:27 10° E daylight
02 Jun - 07:54:39 10° W 08:06:37 71° S 08:24:00 10° ESE daylight
02 Jun - 10:04:25 10° W 10:18:32 51° SSW 10:35:21 10° SE daylight
02 Jun - 12:17:24 10° W 12:29:37 24° SW 12:41:56 10° S daylight
03 Jun - 01:55:47 10° SE 01:56:16 10° SE 01:56:46 10° SE visible
03 Jun - 03:56:34 10° SW 04:03:20 43° SSE 04:14:18 10° E visible
03 Jun - 06:03:30 10° WSW 06:12:48 71° S 06:28:04 10° E daylight
03 Jun - 08:12:00 10° W 08:24:04 67° SSW 08:41:21 10° ESE daylight
03 Jun - 10:22:02 10° W 10:35:46 43° SSW 10:51:54 10° SE daylight
03 Jun - 12:36:48 10° WSW 12:46:34 18° SW 12:56:26 10° S daylight
04 Jun - 02:09:11 10° S 02:12:53 16° SE 02:17:34 10° E visible
04 Jun - 04:13:24 10° SW 04:20:23 52° SSE 04:31:59 10° E visible
04 Jun - 06:20:43 10° W 06:30:10 72° S 06:45:39 10° E daylight
04 Jun - 08:29:21 10° W 08:41:28 61° SSW 08:58:33 10° ESE daylight
04 Jun - 10:39:52 10° W 10:52:58 36° SSW 11:08:05 10° SSE daylight
04 Jun - 12:58:32 10° WSW 13:03:32 12° SW 13:08:34 10° SSW daylight
05 Jun - 02:24:58 10° SSW 02:29:34 23° SE 02:36:02 10° E visible
05 Jun - 04:30:23 10° WSW 04:37:31 59° SSE 04:49:37 10° E visible
05 Jun - 06:37:59 10° W 06:47:35 71° S 07:03:11 10° ESE daylight
05 Jun - 08:46:46 10° W 08:58:50 54° SSW 09:15:31 10° SE daylight
05 Jun - 10:58:01 10° W 11:10:07 28° SW 11:23:49 10° SSE daylight
06 Jun - 02:41:18 10° SSW 02:46:23 31° SSE 02:54:01 10° E visible
06 Jun - 04:47:28 10° WSW 04:54:45 65° S 05:07:13 10° E visible
06 Jun - 06:55:15 10° W 07:04:59 67° S 07:20:38 10° ESE daylight
06 Jun - 09:04:16 10° W 09:16:10 46° SSW 09:32:15 10° SE daylight
06 Jun - 11:16:44 10° W 11:27:15 22° SW 11:38:52 10° S daylight
